Weather History for MGPB - April, 2014

Change the Weather History Date:

Tuesday, April 22, 2014

  Actual Average Record
Temperature  
Mean Temperature 80 °F -  
Max Temperature 86 °F 86 °F 95 °F (1997)
Min Temperature 73 °F 72 °F 69 °F (1999)
Cooling Degree Days 14    
Growing Degree Days 30 (Base 50)    
Moisture  
Dew Point 74 °F    
Average Humidity 87    
Maximum Humidity 100    
Minimum Humidity 62    
Precipitation  
Precipitation 0.12 in - - ()
Sea Level Pressure  
Sea Level Pressure 29.92 in    
Wind  
Wind Speed 3 mph ()    
Max Wind Speed 12 mph    
Max Gust Speed -    
Visibility 6.2 miles    
Events Rain    
Averages and records for this station are not official NWS values.
T = Trace of Precipitation, MM = Missing Value Source: Averaged Metar Reports

Daily Weather History Graph

Daily Weather History Graph

Search for Another Location

Airport or City:

Trip Planner

Search our weather history database for the weather conditions in past years. The results will help you decide how hot, cold, wet, or windy it might be!

Date:

Astronomy

Apr. 22, 2014 Rise Set
Actual Time 5:35 AM CST 6:10 PM CST
Civil Twilight 5:13 AM CST 6:32 PM CST
Nautical Twilight 4:47 AM CST 6:58 PM CST
Astronomical Twilight 4:21 AM CST 7:24 PM CST
Moon 12:19 AM CST (4/22) 12:12 PM CST (4/22)
Length of Visible Light 13h 19m
Length of Day
12h 35m
Last Quarter, 45% of the Moon is Illuminated
Apr 22
Last Quarter
Apr 29
New
May 6
First Quarter
May 14
Full
May 21
Last Quarter

Hourly Weather History & Observations

Time (CST) Temp. Heat Index Dew Point Humidity Pressure Visibility Wind Dir Wind Speed Gust Speed Precip Events Conditions
12:00 AM 75.2 °F - 75.2 °F 100% 29.95 in 5.6 mi Calm Calm - N/A Rain Light Rain
1:00 AM 73.4 °F - 73.4 °F 100% 29.92 in 6.2 mi Calm Calm - N/A   Mostly Cloudy
2:00 AM 73.4 °F - 73.4 °F 100% 29.89 in 6.2 mi Calm Calm - N/A Rain Light Rain
3:00 AM 73.4 °F - 73.4 °F 100% 29.89 in 6.2 mi Calm Calm - N/A   Mostly Cloudy
4:00 AM 71.6 °F - 71.6 °F 100% 29.89 in 6.2 mi Calm Calm - N/A   Mostly Cloudy
5:00 AM 71.6 °F - 71.6 °F 100% 29.89 in 6.2 mi Calm Calm - N/A   Mostly Cloudy
6:00 AM 74 °F - 74 °F 98% 29.92 in 25 mi Calm Calm - -   Partly Cloudy
6:00 AM 73.4 °F - 73.4 °F 100% 29.92 in 6.2 mi Calm Calm - N/A   Mostly Cloudy
7:00 AM 75.2 °F - 75.2 °F 100% 29.92 in 6.2 mi Calm Calm - N/A   Mostly Cloudy
8:00 AM 77.0 °F - 75.2 °F 94% 29.95 in 6.2 mi WNW 4.6 mph - N/A   Mostly Cloudy
9:00 AM 78.8 °F - 75.2 °F 89% 29.95 in 6.2 mi WNW 9.2 mph - N/A   Mostly Cloudy
10:00 AM 82.4 °F 89.5 °F 75.2 °F 79% 29.98 in 6.2 mi NNW 4.6 mph - N/A   Mostly Cloudy
11:00 AM 86.0 °F 95.1 °F 75.2 °F 70% 29.95 in 6.2 mi North 6.9 mph - N/A   Scattered Clouds
12:00 PM 86 °F - 75 °F 62% 29.95 in 25 mi NNW 11.5 mph - -   Partly Cloudy
12:00 PM 86.0 °F 95.1 °F 75.2 °F 70% 29.95 in 6.2 mi NNW 11.5 mph - N/A   Scattered Clouds
1:00 PM 86.0 °F 95.1 °F 75.2 °F 70% 29.92 in 6.2 mi North 9.2 mph - N/A   Scattered Clouds
2:00 PM 86.0 °F 95.1 °F 75.2 °F 70% 29.89 in 6.2 mi North 11.5 mph - N/A   Scattered Clouds
3:00 PM 86.0 °F 95.1 °F 75.2 °F 70% 29.86 in 6.2 mi NNE 11.5 mph - N/A   Scattered Clouds
4:00 PM 84.2 °F 90.9 °F 73.4 °F 70% 29.86 in 6.2 mi North 9.2 mph - N/A   Mostly Cloudy
5:00 PM 82.4 °F 88.2 °F 73.4 °F 74% 29.86 in 6.2 mi NNE 9.2 mph - N/A   Mostly Cloudy
6:00 PM 80.6 °F 85.4 °F 73.4 °F 79% 29.86 in 6.2 mi East 6.9 mph - N/A   Mostly Cloudy
7:00 PM 78.8 °F - 73.4 °F 83% 29.89 in 6.2 mi Calm Calm - N/A   Scattered Clouds
8:00 PM 77.0 °F - 75.2 °F 94% 29.92 in - Calm Calm - N/A   Clear
9:00 PM 75.2 °F - 73.4 °F 94% 29.92 in - Calm Calm - N/A   Clear
10:00 PM 75.2 °F - 73.4 °F 94% 29.95 in - Calm Calm - N/A   Clear
11:00 PM 73.4 °F - 73.4 °F 100% 29.95 in - Calm Calm - N/A   Clear